When you browse on this site, cookies collect data to enhance your experience and personalize the content and advertising you see.
Visit our Privacy Policy to learn more. By continuing to use the site, you agree to this use of cookies and data.
  • In Romania
  • List of Countries
  • For 7 days
  • Water Temperature
  • Satellite Maps
  • Weather Map
  • Weather Widgets
  • user-avatar
    Login

    Hourly Weather Ashanivka

    Today, 24 April, Wednesday

    Time Temperature Precipitation Wind Pressure Humidity
    00:00 +12°C° 0 mm 1 mps 760 mmHg 51%
    01:00 +12°C° 0 mm 1 mps 760 mmHg 52%
    02:00 +11°C° 0 mm 1 mps 760 mmHg 50%
    03:00 +11°C° 0 mm 1 mps 760 mmHg 51%
    04:00 +11°C° 0 mm 1 mps 761 mmHg 52%
    05:00 +10°C° 0 mm 0 mps 761 mmHg 53%
    06:00 +13°C° 0 mm 1 mps 761 mmHg 50%
    07:00 +15°C° 0 mm 1 mps 761 mmHg 46%
    08:00 +16°C° 0 mm 1 mps 761 mmHg 43%
    09:00 +19°C° 0 mm 1 mps 761 mmHg 38%
    10:00 +19°C° 0 mm 2 mps 761 mmHg 33%
    11:00 +21°C° 0 mm 2 mps 761 mmHg 29%
    12:00 +21°C° 0 mm 2 mps 761 mmHg 28%
    13:00 +21°C° 0 mm 2 mps 761 mmHg 27%
    14:00 +23°C° 0 mm 2 mps 760 mmHg 27%
    15:00 +21°C° 0 mm 2 mps 760 mmHg 29%
    16:00 +21°C° 0 mm 2 mps 760 mmHg 30%
    17:00 +21°C° 0 mm 2 mps 760 mmHg 32%
    18:00 +19°C° 0 mm 2 mps 760 mmHg 35%
    19:00 +17°C° 0 mm 2 mps 760 mmHg 37%
    20:00 +15°C° 0 mm 1 mps 760 mmHg 40%
    21:00 +15°C° 0 mm 1 mps 760 mmHg 40%
    22:00 +14°C° 0 mm 1 mps 760 mmHg 41%
    23:00 +14°C° 0 mm 1 mps 760 mmHg 41%

    Tomorrow, 25 April, Thursday

    Time Temperature Precipitation Wind Pressure Humidity
    00:00 +13°C° 0 mm 1 mps 761 mmHg 45%
    01:00 +12°C° 0 mm 1 mps 761 mmHg 48%
    02:00 +12°C° 0 mm 2 mps 761 mmHg 52%
    03:00 +11°C° 0 mm 1 mps 761 mmHg 54%
    04:00 +11°C° 0 mm 1 mps 761 mmHg 56%
    05:00 +11°C° 0 mm 1 mps 761 mmHg 58%
    06:00 +13°C° 0 mm 1 mps 761 mmHg 54%
    07:00 +14°C° 0 mm 0 mps 761 mmHg 49%
    08:00 +16°C° 0 mm 0 mps 761 mmHg 45%
    09:00 +19°C° 0 mm 1 mps 761 mmHg 41%
    10:00 +21°C° 0 mm 1 mps 760 mmHg 36%
    11:00 +22°C° 0 mm 1 mps 760 mmHg 32%
    12:00 +23°C° 0 mm 2 mps 760 mmHg 32%
    13:00 +23°C° 0 mm 2 mps 760 mmHg 31%
    14:00 +22°C° 0 mm 3 mps 759 mmHg 31%
    15:00 +22°C° 0 mm 3 mps 759 mmHg 33%
    16:00 +22°C° 0 mm 3 mps 759 mmHg 35%
    17:00 +21°C° 0 mm 2 mps 758 mmHg 37%
    18:00 +20°C° 0 mm 2 mps 758 mmHg 40%
    19:00 +18°C° 0 mm 2 mps 758 mmHg 43%
    20:00 +16°C° 0 mm 2 mps 758 mmHg 46%
    21:00 +16°C° 0 mm 2 mps 758 mmHg 47%
    22:00 +15°C° 0 mm 1 mps 758 mmHg 49%
    23:00 +15°C° 0 mm 1 mps 758 mmHg 50%

    Day after tomorrow, 26 April, Friday

    Time Temperature Precipitation Wind Pressure Humidity
    00:00 +14°C° 0 mm 1 mps 758 mmHg 53%
    01:00 +13°C° 0 mm 1 mps 758 mmHg 57%
    02:00 +13°C° 0 mm 1 mps 758 mmHg 60%
    03:00 +13°C° 0 mm 1 mps 758 mmHg 61%
    04:00 +11°C° 0 mm 0 mps 757 mmHg 62%
    05:00 +11°C° 0 mm 0 mps 757 mmHg 62%
    06:00 +13°C° 0 mm 0 mps 757 mmHg 58%
    07:00 +15°C° 0 mm 1 mps 757 mmHg 55%
    08:00 +18°C° 0 mm 1 mps 757 mmHg 51%
    09:00 +18°C° 0 mm 2 mps 757 mmHg 47%
    10:00 +19°C° 0 mm 2 mps 757 mmHg 44%
    11:00 +21°C° 0 mm 3 mps 757 mmHg 41%
    12:00 +21°C° 0 mm 3 mps 756 mmHg 40%
    13:00 +22°C° 0 mm 4 mps 756 mmHg 38%
    14:00 +22°C° 0 mm 4 mps 756 mmHg 37%
    15:00 +22°C° 0 mm 4 mps 755 mmHg 38%
    16:00 +21°C° 0 mm 4 mps 755 mmHg 40%
    17:00 +21°C° 0 mm 3 mps 754 mmHg 41%
    18:00 +19°C° 0 mm 3 mps 755 mmHg 45%
    19:00 +17°C° 0 mm 3 mps 755 mmHg 49%
    20:00 +16°C° 0 mm 2 mps 755 mmHg 53%
    21:00 +15°C° 0 mm 2 mps 754 mmHg 53%
    22:00 +14°C° 0 mm 2 mps 754 mmHg 53%
    23:00 +14°C° 0 mm 2 mps 754 mmHg 54%

    27 April, Saturday

    Time Temperature Precipitation Wind Pressure Humidity
    00:00 +13°C° 0 mm 2 mps 754 mmHg 57%
    01:00 +13°C° 0 mm 2 mps 754 mmHg 61%
    02:00 +12°C° 0 mm 2 mps 753 mmHg 64%
    03:00 +10°C° 0 mm 2 mps 753 mmHg 66%
    04:00 +10°C° 0 mm 2 mps 753 mmHg 68%
    05:00 +10°C° 0 mm 3 mps 753 mmHg 70%
    06:00 +11°C° 0 mm 3 mps 753 mmHg 64%
    07:00 +13°C° 0 mm 4 mps 752 mmHg 59%
    08:00 +15°C° 0 mm 5 mps 752 mmHg 53%
    09:00 +16°C° 0 mm 5 mps 752 mmHg 50%
    10:00 +19°C° 0 mm 6 mps 752 mmHg 46%
    11:00 +21°C° 0 mm 6 mps 752 mmHg 42%
    12:00 +21°C° 0 mm 6 mps 751 mmHg 41%
    13:00 +22°C° 0 mm 6 mps 751 mmHg 41%
    14:00 +22°C° 0 mm 6 mps 750 mmHg 40%
    15:00 +22°C° 0 mm 5 mps 750 mmHg 44%
    16:00 +21°C° 0 mm 4 mps 749 mmHg 48%
    17:00 +21°C° 0 mm 3 mps 749 mmHg 52%
    18:00 +19°C° 0 mm 3 mps 749 mmHg 55%
    19:00 +18°C° 0 mm 3 mps 749 mmHg 59%
    20:00 +16°C° 0 mm 3 mps 749 mmHg 62%
    21:00 +15°C° 0 mm 4 mps 749 mmHg 63%
    22:00 +14°C° 0 mm 4 mps 749 mmHg 63%
    23:00 +14°C° 0 mm 4 mps 748 mmHg 64%

    28 April, Sunday

    Time Temperature Precipitation Wind Pressure Humidity
    00:00 +13°C° 0 mm 4 mps 748 mmHg 65%
    01:00 +13°C° 0 mm 4 mps 748 mmHg 67%
    02:00 +12°C° 0 mm 3 mps 748 mmHg 69%
    03:00 +12°C° 0 mm 3 mps 748 mmHg 71%
    04:00 +11°C° 0 mm 3 mps 748 mmHg 74%
    05:00 +10°C° 0 mm 3 mps 748 mmHg 76%
    06:00 +12°C° 0 mm 3 mps 748 mmHg 71%
    07:00 +14°C° 0 mm 4 mps 748 mmHg 66%
    08:00 +15°C° 0 mm 4 mps 748 mmHg 61%
    09:00 +18°C° 0 mm 4 mps 748 mmHg 54%
    10:00 +20°C° 0 mm 4 mps 748 mmHg 48%
    11:00 +21°C° 0 mm 4 mps 748 mmHg 41%
    12:00 +22°C° 0 mm 4 mps 747 mmHg 39%
    13:00 +23°C° 0 mm 4 mps 747 mmHg 37%
    14:00 +23°C° 0 mm 4 mps 747 mmHg 36%
    15:00 +23°C° 0 mm 4 mps 747 mmHg 37%
    16:00 +24°C° 0 mm 3 mps 746 mmHg 39%
    17:00 +24°C° 0 mm 3 mps 746 mmHg 41%
    18:00 +21°C° 0 mm 2 mps 746 mmHg 44%
    19:00 +19°C° 0 mm 2 mps 746 mmHg 47%
    20:00 +17°C° 0 mm 2 mps 747 mmHg 50%
    21:00 +17°C° 0 mm 2 mps 747 mmHg 51%
    22:00 +16°C° 0 mm 2 mps 747 mmHg 52%
    23:00 +15°C° 0 mm 1 mps 747 mmHg 53%

    29 April, Monday

    Time Temperature Precipitation Wind Pressure Humidity
    00:00 +15°C° 0 mm 1 mps 747 mmHg 57%
    01:00 +14°C° 0 mm 1 mps 747 mmHg 62%
    02:00 +14°C° 0 mm 1 mps 747 mmHg 67%
    03:00 +13°C° 0 mm 2 mps 748 mmHg 75%
    04:00 +12°C° 0 mm 3 mps 748 mmHg 83%
    05:00 +12°C° 0 mm 4 mps 748 mmHg 91%
    06:00 +12°C° 0.1 mm 4 mps 748 mmHg 89%
    07:00 +12°C° 0.1 mm 5 mps 749 mmHg 87%
    08:00 +12°C° 0.1 mm 5 mps 749 mmHg 84%
    09:00 +11°C° 0.1 mm 6 mps 749 mmHg 83%
    10:00 +11°C° 0.1 mm 6 mps 750 mmHg 82%
    11:00 +10°C° 0.1 mm 7 mps 750 mmHg 80%
    12:00 +10°C° 0 mm 7 mps 750 mmHg 78%
    13:00 +11°C° 0 mm 7 mps 750 mmHg 76%
    14:00 +11°C° 0 mm 7 mps 750 mmHg 74%
    15:00 +11°C° 0 mm 7 mps 751 mmHg 73%
    16:00 +10°C° 0 mm 7 mps 751 mmHg 72%
    17:00 +10°C° 0 mm 7 mps 751 mmHg 71%
    18:00 +9°C° 0 mm 6 mps 751 mmHg 70%
    19:00 +9°C° 0 mm 6 mps 752 mmHg 69%
    20:00 +8°C° 0 mm 5 mps 752 mmHg 68%
    21:00 +8°C° 0 mm 6 mps 752 mmHg 67%
    22:00 +8°C° 0 mm 6 mps 753 mmHg 66%
    23:00 +8°C° 0 mm 7 mps 753 mmHg 64%
    Show more